GFSSW_925_spd_219.txt.gz
Wind_Speed
20 18 18 18 18 17 17 17 18 20 19 20 20 22 21 19 22 24 17 16 9 12 13 5 10 14 7 5 5 4 3 6 7 7 3 3 4 3 1 9 3 3 7 9 28
18 19 18 20 21 19 18 19 20 20 20 20 20 21 21 22 24 23 29 26 23 20 15 13 6 8 4 6 6 7 9 9 5 4 1 4 2 5 5 5 2 3 5 31 30
20 20 20 19 19 18 19 20 20 21 21 22 22 20 19 19 9 9 11 11 18 22 21 15 6 6 7 5 7 7 13 7 3 2 5 3 3 4 6 5 7 12 22 21 25
21 19 20 20 21 22 22 22 23 23 23 22 22 20 19 14 9 2 11 16 16 14 23 13 8 9 8 12 9 6 17 11 7 1 1 3 7 5 5 5 6 19 27 26 21
21 20 22 21 22 24 25 25 25 25 24 22 21 20 18 10 14 24 24 28 29 11 24 14 15 15 19 17 9 12 3 18 5 4 4 5 5 4 6 5 11 16 23 25 22
20 21 20 21 23 25 26 26 27 27 27 25 23 19 16 24 12 23 24 22 16 14 18 20 6 11 7 7 17 8 13 7 15 8 6 4 4 3 2 7 12 20 22 20 21
22 22 21 24 24 25 26 28 29 30 29 27 23 21 14 19 18 23 25 28 24 18 8 15 20 11 7 11 11 5 9 13 8 6 6 3 7 7 3 7 13 15 14 18 14
22 21 21 23 25 25 28 30 33 34 33 29 24 21 14 7 16 26 31 29 28 26 21 25 19 10 6 5 2 13 4 6 14 10 6 7 14 6 7 11 8 9 9 12 12
23 23 22 25 26 27 29 33 34 31 27 19 15 11 10 9 11 21 20 22 23 14 10 17 12 8 6 9 6 7 10 15 1 17 6 13 9 9 8 12 10 8 9 11 10
21 22 24 25 26 28 32 28 20 19 8 4 3 3 6 5 5 4 1 7 9 7 6 8 8 9 11 14 16 9 13 11 15 7 16 12 6 2 9 9 12 11 10 11 13
23 24 24 26 26 27 23 13 6 5 5 5 10 7 12 3 14 9 10 1 3 6 12 13 11 19 27 26 21 13 12 5 12 7 9 16 13 7 7 6 8 10 12 12 13
22 23 24 25 25 25 15 3 7 7 12 8 15 13 23 15 7 19 6 2 4 12 11 7 21 30 15 18 21 20 13 14 2 9 9 9 13 8 9 7 12 14 13 14 10
23 23 23 25 23 7 13 4 16 7 4 7 4 5 5 6 7 8 11 11 9 11 12 19 12 13 17 17 22 24 15 15 12 5 4 5 3 6 8 6 7 10 12 13 18
23 22 22 22 5 14 7 15 18 4 3 6 4 5 2 5 6 7 17 5 6 10 12 14 15 14 19 23 18 17 17 8 12 12 8 5 5 10 15 7 8 11 11 14 15
21 20 17 14 10 6 12 19 14 1 4 7 5 2 10 4 7 4 12 3 10 5 7 14 8 15 14 26 20 6 15 12 11 4 5 2 2 5 3 16 17 15 11 13 16
21 19 16 9 9 10 19 15 1 6 4 7 6 17 11 6 3 4 3 6 4 3 10 9 6 7 12 9 15 8 12 8 3 4 7 8 6 4 6 11 7 6 12 15 15
21 17 9 6 7 19 14 3 5 5 5 8 14 17 16 5 5 4 2 3 4 5 8 9 10 3 17 12 9 8 10 7 5 5 3 8 5 8 5 7 8 17 15 15 17
20 11 6 8 15 13 5 5 7 4 6 7 10 18 5 6 3 6 4 4 6 1 3 9 10 9 6 8 5 6 6 2 4 5 4 3 7 6 8 8 8 6 7 8 11
17 9 2 12 14 9 5 5 5 3 5 8 16 4 4 3 4 6 2 4 4 6 4 2 9 3 6 5 10 7 4 2 6 2 4 4 5 7 7 7 6 9 6 9 11
13 6 4 16 9 5 5 2 3 4 5 3 3 4 6 8 9 9 2 2 4 7 5 3 2 2 3 4 3 6 7 3 3 3 2 2 3 5 3 3 2 5 9 9 7
4 3 5 18 3 5 3 5 5 7 6 3 3 5 5 5 13 7 9 3 7 4 3 2 1 2 5 1 7 2 4 3 4 3 4 4 4 4 4 4 5 8 7 9 9
3 2 11 14 4 1 1 3 6 6 3 4 3 4 4 13 5 4 7 4 10 2 3 3 1 4 4 1 2 2 5 5 4 2 1 2 3 0 3 6 6 7 6 4 6
1 2 5 5 3 3 5 5 3 5 6 5 4 6 7 5 5 3 7 9 12 4 1 4 2 3 4 3 4 4 2 5 4 3 2 4 2 2 4 5 6 5 6 3 6
2 3 4 4 0 2 4 4 6 6 5 4 4 4 7 4 3 5 5 6 10 7 8 3 2 3 2 5 5 4 1 3 5 3 6 4 3 2 6 5 4 5 5 5 4
3 2 3 4 4 2 2 1 6 7 4 5 3 8 11 4 6 5 5 8 3 12 5 3 2 3 2 3 4 4 5 3 6 6 7 4 5 3 1 2 3 3 4 6 7
2 3 3 3 3 4 5 3 5 6 3 5 5 13 11 5 4 11 13 7 3 7 5 3 2 2 4 4 4 5 8 3 2 4 4 5 5 6 3 2 2 5 4 5 6
2 1 1 4 3 2 1 5 7 4 6 6 10 12 6 5 12 15 12 13 11 6 4 3 2 3 1 2 6 3 12 10 3 3 7 4 7 4 2 2 1 3 4 5 7

GFSSW_925_spd_222.txt.gz
Wind_Speed
18 19 19 17 20 19 18 19 19 19 19 20 21 21 21 23 25 25 16 20 13 9 9 17 8 11 8 5 5 3 3 10 7 6 4 3 5 2 3 8 2 8 7 6 24
18 19 18 19 19 19 19 20 20 19 20 22 22 21 21 22 25 22 32 26 23 20 19 13 7 8 5 7 8 6 8 11 5 5 3 2 1 5 5 4 2 2 4 25 27
20 20 19 23 22 22 22 23 23 24 24 23 22 20 21 21 13 7 17 10 13 16 28 18 11 5 7 8 8 7 15 6 2 3 2 1 3 4 4 3 7 12 15 19 22
21 20 21 21 19 22 23 24 23 23 24 24 22 21 20 16 8 5 4 22 18 17 15 17 9 7 9 14 12 6 15 10 14 3 1 3 1 4 5 5 5 7 23 22 22
20 22 21 20 22 23 24 24 25 25 25 23 22 21 18 10 15 34 32 28 18 17 9 16 16 13 14 15 12 16 7 16 5 12 2 1 2 2 5 4 6 18 20 22 18
22 22 21 21 22 24 25 26 28 28 28 25 22 21 17 23 8 22 21 23 15 9 8 11 7 13 5 15 18 7 15 5 14 13 4 4 2 1 1 5 9 18 20 20 19
20 23 22 22 24 25 26 28 30 32 30 26 23 21 14 17 20 26 29 35 28 19 9 9 15 8 10 6 15 21 5 13 8 12 6 6 7 8 3 7 12 15 17 18 19
22 21 22 24 26 26 28 29 34 32 29 23 18 16 11 16 17 24 28 25 25 17 16 14 16 10 4 5 4 8 13 8 11 11 5 11 20 4 7 11 10 13 13 12 13
23 22 23 25 26 28 28 32 30 27 20 12 4 5 6 3 6 17 16 11 18 16 15 9 7 5 5 6 6 7 9 16 5 16 7 16 8 20 8 8 11 10 9 11 9
23 23 24 25 26 28 30 27 21 19 7 4 2 1 4 4 4 4 6 9 3 2 2 6 5 5 5 8 13 14 17 11 14 9 10 20 9 4 12 9 12 11 8 10 11
24 25 24 25 26 26 21 10 6 5 6 5 7 5 12 11 14 13 8 3 3 3 4 5 6 15 20 21 16 10 4 3 8 7 12 16 13 4 7 9 8 11 12 11 12
25 25 24 24 23 15 15 5 6 9 11 8 13 9 16 8 5 7 13 8 6 5 5 7 20 23 10 8 12 18 16 11 2 8 9 12 15 11 7 7 10 12 12 13 10
25 25 23 22 20 9 9 3 16 11 4 7 5 4 5 7 6 6 8 4 4 6 8 16 10 20 12 13 13 17 21 13 8 8 0 6 4 9 9 5 7 9 13 13 17
24 22 21 21 4 13 7 15 21 4 3 6 5 4 2 4 5 5 13 7 5 15 10 11 14 12 19 19 14 19 19 15 11 15 11 7 6 9 14 8 8 12 11 15 15
23 21 19 13 9 6 13 25 14 2 5 8 6 2 11 4 7 1 4 2 8 9 5 6 5 19 8 20 18 13 13 12 8 15 6 3 2 4 8 13 16 15 12 13 16
23 21 15 7 8 10 24 18 1 6 4 7 5 15 11 8 2 4 1 6 1 3 3 3 4 4 7 7 15 10 7 16 11 3 9 11 12 4 7 23 13 11 13 16 15
22 19 8 6 7 20 17 3 5 5 5 8 10 13 17 5 7 3 1 3 2 2 5 5 5 3 7 7 8 11 8 5 5 5 1 6 5 8 5 6 10 17 15 15 16
21 13 6 5 17 17 7 5 7 4 6 6 8 17 4 6 5 6 2 3 8 8 2 6 4 12 8 6 1 14 12 5 2 4 4 0 7 5 5 6 7 6 9 13 17
17 9 1 11 18 10 5 5 5 3 5 9 15 4 4 3 6 5 3 3 5 9 4 4 6 5 16 5 9 5 7 2 6 2 4 3 6 8 4 3 6 7 6 8 10
14 6 3 19 11 5 5 2 3 3 5 2 4 4 8 8 8 10 4 3 3 7 6 2 4 7 3 8 4 4 8 3 1 6 4 2 3 4 3 4 3 4 7 5 5
5 3 6 20 5 5 3 4 5 6 6 2 3 5 6 6 8 5 6 4 9 2 5 2 2 4 10 5 5 6 3 2 4 2 4 4 4 4 2 3 4 5 5 6 8
3 3 12 15 4 1 1 2 4 5 2 3 4 4 4 9 5 4 6 7 9 7 3 2 0 0 9 1 2 4 5 3 2 1 2 1 2 3 4 2 3 5 5 4 6
2 2 6 6 3 3 5 4 3 4 5 4 4 4 5 5 5 3 6 8 13 9 4 1 1 1 4 3 1 5 5 4 6 3 1 3 3 0 3 4 4 4 5 4 3
3 4 4 4 1 2 5 4 6 5 4 4 4 5 10 4 3 6 8 6 15 9 17 2 1 2 4 4 5 5 3 5 5 4 4 1 6 4 4 6 6 5 4 3 6
2 2 1 4 3 3 3 3 5 6 3 5 3 9 12 5 5 3 5 11 9 9 9 3 3 4 3 5 4 4 6 6 4 5 5 4 6 3 3 5 3 3 4 6 5
2 3 1 3 3 3 4 3 4 4 3 5 3 12 13 7 4 11 9 5 5 9 7 7 2 1 6 4 5 5 6 7 3 3 3 5 3 3 2 4 5 5 5 5 6
1 2 1 3 2 2 2 4 4 2 5 7 8 10 10 7 11 18 14 13 14 10 5 5 3 4 3 3 5 4 5 5 4 2 7 3 3 5 1 3 5 6 3 5 6

GFSSW_925_spd_225.txt.gz
Wind_Speed
17 19 18 16 21 21 20 22 23 23 21 19 21 23 22 20 21 22 17 19 14 15 11 9 11 9 9 5 7 3 4 13 11 10 3 4 8 1 2 7 1 5 4 2 23
19 20 19 20 21 18 19 21 23 24 24 23 23 22 21 19 21 19 24 21 22 17 19 13 7 6 5 8 6 5 9 12 6 5 3 3 6 7 6 4 2 2 3 18 23
19 19 21 21 20 20 23 23 23 23 24 23 23 22 21 19 12 7 17 23 12 14 21 15 11 6 15 8 12 11 11 6 7 7 5 3 3 3 7 4 7 13 15 16 17
21 22 22 21 21 22 23 24 24 24 25 24 23 21 19 14 8 3 6 26 19 15 14 16 11 9 9 16 11 10 17 11 7 1 3 2 0 0 4 5 2 6 16 23 18
22 20 22 22 22 23 24 24 25 26 26 25 23 21 19 9 10 35 32 19 8 13 8 9 16 14 15 9 13 18 13 19 9 11 5 0 2 2 5 1 1 12 19 19 17
22 22 22 21 24 25 25 26 27 29 29 26 23 20 13 20 20 24 18 17 8 12 12 7 6 12 8 9 11 5 16 14 15 11 7 6 2 2 0 3 9 16 20 20 20
21 22 23 24 24 26 27 29 29 33 28 24 20 17 9 18 11 19 28 31 24 15 6 9 11 2 3 4 15 6 12 14 17 12 7 5 9 6 3 6 10 13 14 15 18
23 23 23 24 25 27 29 30 31 30 22 17 13 8 5 9 13 18 23 24 23 14 11 11 6 1 4 2 1 12 5 15 11 14 7 13 19 12 6 10 11 14 13 13 17
23 24 25 26 27 27 30 30 28 23 10 12 5 2 7 6 3 10 12 9 8 4 9 3 7 3 9 7 6 7 12 16 7 19 11 10 6 9 7 7 10 14 14 12 11
25 25 25 25 25 25 25 21 22 10 14 3 3 1 4 3 4 4 6 6 2 2 7 7 5 5 8 13 16 12 16 8 18 8 12 16 11 8 10 8 12 14 12 12 12
24 25 25 24 23 22 20 7 7 5 9 4 10 6 13 9 16 9 13 2 4 3 2 7 7 11 11 25 15 14 3 13 5 7 9 16 14 8 9 14 8 11 14 14 13
25 25 23 23 22 12 10 4 4 8 9 8 12 8 15 4 5 7 4 6 7 10 4 4 18 11 10 10 19 7 9 8 3 10 8 8 15 16 11 15 16 15 14 14 12
24 24 23 22 18 9 6 5 14 10 4 7 5 4 5 5 5 7 7 4 4 6 9 9 7 14 13 10 12 13 16 9 8 6 6 8 15 9 13 7 13 7 10 12 17
23 23 23 21 3 12 1 20 18 1 3 6 5 3 1 3 4 6 7 5 3 9 5 6 11 12 14 11 13 13 10 12 8 8 6 10 5 15 16 15 11 18 16 16 17
23 22 21 12 8 5 13 21 7 3 5 10 6 2 13 4 5 1 2 4 6 6 5 7 9 13 17 16 12 5 10 12 11 11 5 7 5 5 15 17 20 17 15 16 16
22 22 17 9 7 12 21 14 1 6 4 7 5 12 11 4 2 4 3 2 1 5 5 5 3 4 11 5 15 3 3 5 8 5 9 7 14 5 10 28 19 17 16 16 15
24 19 11 7 7 22 15 3 5 6 5 9 8 11 12 5 9 2 2 4 4 3 2 3 5 3 9 9 2 12 9 4 7 5 9 5 9 13 13 14 21 19 17 17 16
23 18 4 3 20 14 5 5 7 4 5 5 6 14 4 7 7 9 6 1 6 4 2 5 3 12 7 6 6 16 15 5 6 7 2 4 6 6 5 7 6 10 17 17 19
25 7 1 11 15 8 5 5 6 3 4 8 14 4 4 2 4 6 3 3 4 9 6 5 5 4 12 5 9 9 11 3 3 2 3 3 4 7 4 3 5 6 7 14 16
14 5 4 20 8 2 5 2 2 3 4 3 3 3 5 9 8 9 5 3 5 6 6 2 3 5 6 8 3 3 7 4 3 3 1 2 4 2 1 5 5 7 7 8 12
5 3 6 19 4 5 3 4 4 5 3 3 3 4 5 7 5 4 4 7 8 9 7 2 4 1 11 8 13 5 3 3 4 2 4 4 3 4 2 1 4 4 5 6 8
3 3 12 14 4 2 1 3 4 4 2 3 3 3 3 10 4 3 4 5 13 13 6 5 2 2 8 4 8 4 8 2 3 4 1 0 1 1 3 4 3 3 4 4 6
2 2 6 6 3 3 5 4 2 3 4 4 3 3 5 5 5 4 4 8 10 12 9 2 2 3 6 2 2 4 3 4 5 2 2 1 1 3 2 2 2 2 2 1 5
3 3 4 4 2 3 5 5 6 4 3 4 4 3 8 4 4 7 7 7 23 12 23 4 2 1 3 6 5 6 8 5 4 2 3 3 5 3 3 4 3 4 3 3 4
3 2 3 4 3 3 2 3 4 6 4 4 3 4 6 5 7 2 4 15 11 7 15 5 3 4 3 2 4 6 14 12 9 4 4 8 5 2 2 2 2 3 3 5 6
2 3 3 3 4 4 4 3 2 4 2 5 2 13 8 5 5 15 12 7 6 9 11 7 5 5 7 6 10 6 5 7 4 5 5 8 2 1 1 1 4 5 5 5 5
3 2 2 4 2 2 2 3 4 1 4 7 7 10 7 7 8 18 16 14 15 11 5 5 4 4 3 4 6 5 1 1 3 5 4 4 5 4 3 5 4 5 5 5 5

GFSSW_925_spd_231.txt.gz
Wind_Speed
19 20 20 19 20 20 20 20 21 23 22 22 21 21 22 22 23 25 20 15 16 26 21 25 19 17 13 16 16 3 11 15 29 27 20 11 9 15 12 10 4 6 3 7 19
19 20 19 20 20 20 21 22 23 23 22 22 22 22 21 21 24 27 23 12 18 12 22 19 15 17 14 16 10 7 12 19 26 20 16 9 15 17 10 16 10 7 2 16 17
19 19 19 20 22 20 23 23 24 25 25 25 23 21 20 20 17 11 17 7 15 10 15 21 20 14 17 16 22 13 21 21 19 20 8 10 13 15 19 19 15 16 12 13 18
20 20 21 21 22 22 24 24 27 26 26 25 23 21 19 16 7 14 15 16 18 14 6 9 13 19 16 22 23 23 25 25 11 17 10 9 14 17 16 20 10 11 13 15 17
20 21 21 22 23 25 25 26 27 27 27 25 23 19 16 9 18 23 19 18 10 12 10 5 16 19 22 17 22 24 25 24 25 12 18 19 20 11 17 11 1 13 15 16 16
20 22 24 24 25 26 26 27 28 27 25 23 19 15 12 13 11 8 9 5 6 7 9 6 7 13 19 25 20 13 22 25 17 13 14 5 19 14 12 13 7 9 18 16 16
21 22 23 24 24 25 27 28 29 26 24 17 13 10 9 15 14 14 12 14 13 14 10 10 7 7 11 19 23 16 17 21 26 21 14 4 16 17 17 12 12 11 13 16 15
20 22 23 25 25 26 29 29 27 25 18 10 15 10 8 6 8 8 7 6 4 8 13 10 4 5 5 14 12 22 17 15 24 19 12 12 9 19 18 13 14 13 15 17 19
21 23 24 26 25 27 27 30 26 15 10 13 2 4 1 3 4 11 9 10 7 5 6 10 5 5 6 13 16 12 17 25 20 25 13 16 10 16 20 13 14 14 13 16 14
22 24 25 26 26 27 24 27 17 9 18 1 2 5 2 9 14 15 16 11 11 6 6 7 7 4 5 11 15 18 25 22 23 20 24 18 17 9 11 14 17 15 15 15 13
23 24 25 25 25 21 21 15 7 1 12 6 12 10 13 16 18 9 11 7 11 9 11 15 7 10 11 11 22 23 20 26 21 21 19 22 19 20 19 9 16 14 16 14 12
23 23 24 24 23 13 14 7 8 7 9 13 7 9 11 8 12 7 2 4 4 11 10 5 14 17 16 11 14 27 21 18 20 19 20 20 20 17 23 13 14 12 14 16 13
23 23 23 23 11 9 8 12 11 5 5 7 6 8 6 6 11 14 4 6 9 13 13 14 13 11 17 16 8 11 22 20 19 16 16 14 16 20 22 22 24 12 15 17 17
22 24 22 24 6 12 4 17 11 1 3 4 2 2 8 14 8 4 4 5 4 9 10 11 15 14 12 18 9 7 17 16 19 12 15 16 8 18 15 10 18 20 14 16 16
24 25 21 12 10 7 11 16 6 3 4 10 5 4 14 8 12 1 5 5 9 10 5 4 6 11 16 15 14 6 8 11 20 15 14 14 9 11 20 18 16 21 20 18 19
26 25 15 4 6 9 16 10 2 3 4 6 7 16 18 10 11 4 3 1 4 6 12 17 11 7 12 15 15 6 12 13 17 13 8 9 13 13 18 26 25 25 20 20 19
26 17 5 6 8 18 12 4 3 2 12 11 13 19 17 15 8 9 5 4 3 5 5 9 15 17 11 13 17 16 6 5 8 9 5 16 11 14 11 18 21 24 22 20 19
24 6 3 5 16 11 7 2 3 5 12 15 17 16 7 13 13 16 14 8 2 8 5 6 4 15 16 18 17 11 14 6 3 9 12 8 8 10 21 6 15 20 21 19 16
12 3 4 15 13 7 3 2 5 9 11 13 18 9 12 13 10 9 8 7 8 9 7 6 5 4 6 14 20 13 12 17 7 2 10 9 9 5 8 12 12 19 20 22 23
8 2 8 20 11 5 2 3 5 6 10 8 7 9 15 16 12 15 7 3 6 4 9 5 6 7 11 11 16 12 12 6 6 5 6 11 13 5 15 13 17 16 20 21 22
5 2 10 19 6 4 3 5 6 8 9 6 8 9 14 15 18 11 6 7 13 13 14 6 4 2 4 13 15 9 5 8 6 2 2 4 6 8 5 11 15 17 19 21 21
5 2 14 15 4 2 5 6 7 8 7 4 7 8 11 20 10 7 7 9 15 19 12 4 6 5 14 7 16 17 13 12 8 6 2 2 2 3 4 2 3 11 13 16 18
2 2 9 12 3 4 7 3 5 10 9 7 6 6 10 12 7 11 13 13 11 22 5 8 4 4 5 5 11 11 7 10 4 8 7 2 1 3 4 5 4 6 8 7 7
2 2 3 3 3 5 7 5 8 8 7 9 9 9 13 14 9 12 14 9 25 15 6 14 4 5 8 4 9 7 12 11 8 8 8 6 4 7 5 4 5 6 6 10 9
4 1 3 4 4 6 4 4 11 10 5 9 4 11 15 5 16 6 19 23 11 6 14 6 5 10 14 8 12 18 12 8 5 7 9 7 11 10 8 6 5 5 6 7 10
2 3 0 2 5 5 1 5 10 12 8 9 9 17 16 13 14 20 19 16 11 7 10 5 4 14 5 9 15 13 13 9 3 7 12 16 14 11 11 11 11 9 8 6 6
3 2 2 2 3 4 3 6 9 13 7 7 15 19 16 14 18 23 22 20 17 18 9 5 6 7 3 4 14 11 9 9 3 5 5 11 7 9 13 15 15 15 12 8 6

GFSSW_925_spd_234.txt.gz
Wind_Speed
22 21 21 20 21 23 21 21 24 23 23 23 23 22 22 21 23 26 22 22 11 18 21 22 22 22 21 8 12 9 7 15 23 20 16 6 5 9 4 4 3 5 7 10 21
21 22 22 22 23 23 24 24 24 24 25 24 23 24 21 20 25 28 32 15 8 16 17 20 16 17 8 8 8 11 11 19 12 15 16 8 5 8 6 9 4 7 15 14 15
21 21 22 23 23 25 25 26 26 25 25 24 23 22 20 18 14 5 15 11 10 14 15 14 20 17 17 15 14 10 19 8 16 13 15 2 7 14 15 11 9 12 15 14 14
21 23 23 25 25 25 26 27 27 27 25 25 23 21 17 12 5 6 6 15 21 11 14 7 10 15 12 19 16 19 18 18 15 9 9 7 2 8 11 11 10 10 17 14 14
22 23 23 25 26 27 27 28 28 27 26 24 22 17 12 6 14 23 9 11 6 6 11 7 7 12 15 13 15 21 19 20 19 14 6 4 10 8 13 9 5 16 18 18 15
21 23 24 25 27 28 28 30 30 28 25 24 16 12 8 8 11 11 13 7 3 1 4 7 5 10 11 16 16 9 19 20 19 19 16 10 6 9 13 11 7 9 15 15 18
22 23 25 26 28 29 31 32 29 27 25 16 11 7 7 11 11 9 8 6 8 9 7 7 8 3 10 9 16 19 20 16 21 16 14 10 9 9 17 23 10 7 12 12 16
22 24 25 26 27 29 32 32 28 25 15 12 12 9 5 5 4 7 12 14 5 4 7 8 7 4 2 11 10 14 18 15 14 17 5 9 15 12 19 8 6 10 13 13 14
23 25 26 26 27 29 30 30 29 18 14 12 8 6 2 4 7 14 13 14 15 9 6 9 7 2 2 6 9 9 13 18 15 16 11 8 3 15 9 7 14 8 13 14 13
23 24 25 26 27 27 26 34 22 7 15 4 4 5 3 10 19 20 13 12 6 10 2 5 3 4 4 7 13 10 9 15 18 17 19 16 13 7 14 9 11 13 11 16 17
24 25 26 27 27 20 26 14 7 1 9 6 12 9 11 17 15 13 8 9 9 8 9 9 6 6 14 15 14 17 13 19 14 19 17 19 14 8 8 7 7 14 11 13 16
23 24 26 26 23 12 13 7 6 5 9 12 11 8 8 6 10 14 5 7 7 9 11 8 8 13 12 13 17 17 16 16 11 14 18 15 19 16 13 8 4 12 12 12 13
23 25 27 26 13 10 7 12 10 4 4 7 5 4 7 6 11 13 5 9 11 12 10 12 11 4 9 13 7 13 17 14 11 13 15 13 17 15 16 7 10 10 11 10 20
24 26 28 23 4 14 3 16 11 2 3 4 5 4 8 13 5 10 6 6 4 8 9 7 11 14 9 13 12 9 7 19 17 7 8 10 8 12 14 17 17 10 15 7 15
25 27 21 8 9 8 13 14 6 2 2 9 7 2 16 12 9 3 7 3 6 11 7 4 4 9 8 11 11 5 10 12 7 3 1 7 4 5 15 12 13 12 16 7 14
26 23 12 6 12 11 16 11 3 3 3 5 11 16 15 10 9 2 13 6 5 7 9 16 13 10 7 9 8 6 4 6 7 2 3 3 10 5 15 20 19 17 18 13 15
28 13 7 9 9 21 14 5 3 4 11 11 14 17 15 14 12 12 10 6 6 6 4 11 14 13 11 6 7 10 5 1 2 1 3 5 8 10 17 18 21 20 18 15 21
24 8 7 6 21 14 8 2 5 10 12 15 14 17 9 15 11 16 11 7 9 6 9 6 3 6 14 11 6 8 4 3 5 4 5 9 4 6 8 17 18 20 19 12 16
15 5 5 16 19 10 3 3 3 7 10 11 16 7 9 15 8 9 11 2 4 6 5 4 4 8 6 8 12 7 5 4 3 4 2 5 6 5 7 5 10 21 19 17 17
12 8 4 22 16 6 2 2 5 8 9 7 7 8 12 14 9 11 5 3 2 4 7 4 6 3 8 6 10 6 5 3 3 3 5 5 8 4 8 13 8 7 14 17 14
5 3 10 22 10 3 2 3 4 8 7 4 5 5 10 10 12 7 5 10 6 9 15 7 4 3 3 5 7 6 3 3 2 2 4 5 2 5 4 4 7 8 10 18 19
5 3 16 20 3 2 2 3 6 8 8 5 6 7 7 13 5 3 5 7 15 18 10 4 4 5 6 2 5 11 6 3 3 3 4 2 2 7 7 9 9 5 4 13 22
3 3 13 14 3 4 8 4 6 9 8 7 5 6 10 10 6 9 12 11 14 19 3 7 3 5 3 4 5 4 11 9 2 2 3 2 2 5 6 8 9 8 7 5 17
2 4 3 3 2 3 6 6 8 7 8 12 8 6 9 9 7 11 12 9 20 15 11 10 4 6 6 7 2 2 3 5 4 1 1 3 8 10 9 7 7 9 8 7 6
3 1 1 3 4 5 4 5 9 10 7 9 4 11 12 5 13 3 14 17 11 5 9 7 5 7 13 16 9 6 8 5 2 4 1 7 12 7 6 7 8 7 8 6 5
2 3 3 2 5 5 3 5 9 12 6 8 7 14 14 11 9 17 13 6 6 5 10 3 5 10 8 4 8 7 11 10 4 2 3 16 13 10 11 17 17 9 7 7 5
4 0 2 1 4 3 2 5 9 9 5 9 14 12 12 12 17 20 18 18 16 17 8 3 4 6 3 7 3 7 3 7 6 8 4 12 9 10 12 18 16 15 12 8 7